When you browse on this site, cookies collect data to enhance your experience and personalize the content and advertising you see.
Visit our Privacy Policy to learn more. By continuing to use the site, you agree to this use of cookies and data.
  • In Portugal
  • List of Countries
  • For 7 days
  • Water Temperature
  • Satellite Maps
  • Weather Map
  • Weather Widgets
  • user-avatar
    Login

    Hourly Weather Barce

    Today, 26 April, Friday

    Time Temperature Precipitation Wind Pressure Humidity
    00:00 +16°C° 0 mm 2 mps 751 mmHg 82%
    01:00 +16°C° 0 mm 2 mps 751 mmHg 81%
    02:00 +15°C° 0 mm 2 mps 751 mmHg 83%
    03:00 +15°C° 0 mm 2 mps 751 mmHg 84%
    04:00 +15°C° 0 mm 2 mps 751 mmHg 85%
    05:00 +16°C° 0 mm 2 mps 750 mmHg 81%
    06:00 +17°C° 0 mm 3 mps 750 mmHg 77%
    07:00 +19°C° 0 mm 3 mps 750 mmHg 72%
    08:00 +20°C° 0 mm 3 mps 750 mmHg 65%
    09:00 +22°C° 0 mm 3 mps 750 mmHg 59%
    10:00 +25°C° 0 mm 4 mps 749 mmHg 52%
    11:00 +26°C° 0 mm 4 mps 749 mmHg 49%
    12:00 +26°C° 0 mm 4 mps 749 mmHg 45%
    13:00 +27°C° 0 mm 4 mps 749 mmHg 42%
    14:00 +27°C° 0 mm 4 mps 748 mmHg 42%
    15:00 +27°C° 0 mm 3 mps 748 mmHg 42%
    16:00 +27°C° 0 mm 3 mps 748 mmHg 42%
    17:00 +26°C° 0 mm 2 mps 748 mmHg 47%
    18:00 +24°C° 0 mm 2 mps 747 mmHg 52%
    19:00 +22°C° 0 mm 1 mps 747 mmHg 57%
    20:00 +21°C° 0 mm 1 mps 747 mmHg 60%
    21:00 +20°C° 0 mm 1 mps 747 mmHg 62%
    22:00 +19°C° 0 mm 2 mps 747 mmHg 64%
    23:00 +18°C° 0 mm 2 mps 747 mmHg 67%

    Tomorrow, 27 April, Saturday

    Time Temperature Precipitation Wind Pressure Humidity
    00:00 +18°C° 0 mm 1 mps 747 mmHg 71%
    01:00 +18°C° 0 mm 1 mps 748 mmHg 75%
    02:00 +16°C° 0.2 mm 2 mps 748 mmHg 80%
    03:00 +16°C° 0.2 mm 3 mps 748 mmHg 86%
    04:00 +14°C° 0.2 mm 3 mps 748 mmHg 92%
    05:00 +14°C° 0.3 mm 4 mps 748 mmHg 91%
    06:00 +15°C° 0.3 mm 5 mps 748 mmHg 90%
    07:00 +15°C° 0.3 mm 6 mps 749 mmHg 89%
    08:00 +14°C° 0.4 mm 6 mps 749 mmHg 88%
    09:00 +14°C° 0.4 mm 6 mps 750 mmHg 88%
    10:00 +13°C° 0.4 mm 6 mps 750 mmHg 87%
    11:00 +13°C° 0 mm 6 mps 750 mmHg 84%
    12:00 +12°C° 0 mm 7 mps 751 mmHg 80%
    13:00 +14°C° 0 mm 7 mps 751 mmHg 77%
    14:00 +14°C° 0 mm 6 mps 751 mmHg 75%
    15:00 +14°C° 0 mm 6 mps 751 mmHg 72%
    16:00 +14°C° 0 mm 6 mps 751 mmHg 70%
    17:00 +13°C° 0 mm 5 mps 751 mmHg 71%
    18:00 +12°C° 0 mm 4 mps 752 mmHg 72%
    19:00 +11°C° 0 mm 3 mps 752 mmHg 74%
    20:00 +11°C° 0 mm 3 mps 752 mmHg 74%
    21:00 +10°C° 0 mm 3 mps 752 mmHg 74%
    22:00 +9°C° 0 mm 3 mps 752 mmHg 74%
    23:00 +9°C° 0 mm 3 mps 752 mmHg 74%

    Day after tomorrow, 28 April, Sunday

    Time Temperature Precipitation Wind Pressure Humidity
    00:00 +9°C° 0 mm 2 mps 752 mmHg 73%
    01:00 +9°C° 0 mm 2 mps 753 mmHg 72%
    02:00 +9°C° 0 mm 2 mps 753 mmHg 72%
    03:00 +9°C° 0 mm 2 mps 753 mmHg 73%
    04:00 +9°C° 0 mm 3 mps 753 mmHg 73%
    05:00 +10°C° 0 mm 4 mps 753 mmHg 77%
    06:00 +9°C° 0 mm 5 mps 754 mmHg 80%
    07:00 +10°C° 0 mm 6 mps 754 mmHg 84%
    08:00 +10°C° 0 mm 6 mps 754 mmHg 81%
    09:00 +10°C° 0 mm 6 mps 754 mmHg 78%
    10:00 +11°C° 0 mm 6 mps 754 mmHg 75%
    11:00 +11°C° 0 mm 6 mps 755 mmHg 72%
    12:00 +13°C° 0 mm 5 mps 755 mmHg 69%
    13:00 +14°C° 0 mm 5 mps 755 mmHg 67%
    14:00 +14°C° 0 mm 5 mps 755 mmHg 67%
    15:00 +14°C° 0 mm 5 mps 755 mmHg 67%
    16:00 +14°C° 0 mm 5 mps 755 mmHg 67%
    17:00 +13°C° 0 mm 4 mps 755 mmHg 71%
    18:00 +12°C° 0 mm 3 mps 755 mmHg 74%
    19:00 +12°C° 0 mm 3 mps 755 mmHg 78%
    20:00 +11°C° 0 mm 3 mps 755 mmHg 81%
    21:00 +11°C° 0 mm 3 mps 755 mmHg 84%
    22:00 +10°C° 0 mm 3 mps 755 mmHg 87%
    23:00 +10°C° 0 mm 3 mps 755 mmHg 87%

    29 April, Monday

    Time Temperature Precipitation Wind Pressure Humidity
    00:00 +8°C° 0 mm 4 mps 755 mmHg 86%
    01:00 +8°C° 0 mm 4 mps 755 mmHg 86%
    02:00 +8°C° 0 mm 4 mps 755 mmHg 86%
    03:00 +8°C° 0 mm 5 mps 755 mmHg 86%
    04:00 +8°C° 0 mm 5 mps 754 mmHg 86%
    05:00 +8°C° 0.1 mm 5 mps 754 mmHg 87%
    06:00 +8°C° 0.1 mm 6 mps 754 mmHg 89%
    07:00 +8°C° 0.1 mm 6 mps 754 mmHg 90%
    08:00 +9°C° 0.6 mm 6 mps 754 mmHg 90%
    09:00 +9°C° 0.6 mm 6 mps 754 mmHg 91%
    10:00 +9°C° 0.6 mm 6 mps 754 mmHg 92%
    11:00 +10°C° 0.7 mm 5 mps 754 mmHg 92%
    12:00 +11°C° 0.7 mm 4 mps 753 mmHg 93%
    13:00 +12°C° 0.7 mm 4 mps 753 mmHg 93%
    14:00 +13°C° 0.3 mm 4 mps 753 mmHg 88%
    15:00 +15°C° 0.3 mm 4 mps 753 mmHg 82%
    16:00 +17°C° 0.3 mm 4 mps 753 mmHg 77%
    17:00 +15°C° 0.5 mm 4 mps 753 mmHg 81%
    18:00 +14°C° 0.5 mm 3 mps 753 mmHg 85%
    19:00 +14°C° 0.5 mm 2 mps 753 mmHg 89%
    20:00 +12°C° 0.1 mm 3 mps 753 mmHg 90%
    21:00 +12°C° 0.1 mm 3 mps 753 mmHg 91%
    22:00 +11°C° 0.1 mm 3 mps 753 mmHg 93%
    23:00 +10°C° 0 mm 3 mps 753 mmHg 93%

    30 April, Tuesday

    Time Temperature Precipitation Wind Pressure Humidity
    00:00 +9°C° 0 mm 3 mps 753 mmHg 94%
    01:00 +9°C° 0 mm 3 mps 753 mmHg 94%
    02:00 +8°C° 0 mm 3 mps 754 mmHg 94%
    03:00 +8°C° 0 mm 3 mps 754 mmHg 94%
    04:00 +7°C° 0 mm 3 mps 754 mmHg 94%
    05:00 +8°C° 0 mm 3 mps 754 mmHg 89%
    06:00 +9°C° 0 mm 3 mps 754 mmHg 85%
    07:00 +10°C° 0 mm 4 mps 754 mmHg 81%
    08:00 +12°C° 0 mm 4 mps 754 mmHg 73%
    09:00 +13°C° 0 mm 4 mps 754 mmHg 65%
    10:00 +15°C° 0 mm 4 mps 754 mmHg 57%
    11:00 +15°C° 0 mm 4 mps 754 mmHg 54%
    12:00 +17°C° 0 mm 4 mps 754 mmHg 50%
    13:00 +18°C° 0 mm 4 mps 754 mmHg 47%
    14:00 +17°C° 0 mm 4 mps 753 mmHg 47%
    15:00 +17°C° 0 mm 4 mps 753 mmHg 48%
    16:00 +17°C° 0 mm 4 mps 753 mmHg 48%
    17:00 +15°C° 0 mm 4 mps 753 mmHg 52%
    18:00 +14°C° 0 mm 4 mps 753 mmHg 57%
    19:00 +13°C° 0 mm 4 mps 753 mmHg 61%
    20:00 +11°C° 0 mm 4 mps 753 mmHg 64%
    21:00 +10°C° 0 mm 4 mps 754 mmHg 67%
    22:00 +8°C° 0 mm 5 mps 754 mmHg 70%
    23:00 +7°C° 0 mm 4 mps 754 mmHg 72%

    1 May, Wednesday

    Time Temperature Precipitation Wind Pressure Humidity
    00:00 +6°C° 0 mm 4 mps 753 mmHg 74%
    01:00 +7°C° 0 mm 3 mps 753 mmHg 76%
    02:00 +5°C° 0 mm 3 mps 753 mmHg 77%
    03:00 +5°C° 0 mm 3 mps 753 mmHg 77%
    04:00 +5°C° 0 mm 2 mps 753 mmHg 78%
    05:00 +7°C° 0 mm 2 mps 753 mmHg 75%
    06:00 +8°C° 0 mm 2 mps 753 mmHg 71%
    07:00 +9°C° 0 mm 2 mps 753 mmHg 68%
    08:00 +12°C° 0 mm 2 mps 753 mmHg 62%
    09:00 +13°C° 0 mm 2 mps 753 mmHg 56%
    10:00 +15°C° 0 mm 2 mps 753 mmHg 50%
    11:00 +15°C° 0 mm 2 mps 753 mmHg 48%
    12:00 +15°C° 0 mm 1 mps 752 mmHg 47%
    13:00 +15°C° 0 mm 1 mps 752 mmHg 45%
    14:00 +15°C° 0 mm 1 mps 752 mmHg 46%
    15:00 +15°C° 0 mm 1 mps 751 mmHg 47%
    16:00 +15°C° 0 mm 1 mps 751 mmHg 48%
    17:00 +14°C° 0 mm 1 mps 751 mmHg 52%
    18:00 +12°C° 0 mm 0 mps 751 mmHg 56%
    19:00 +11°C° 0 mm 0 mps 751 mmHg 60%
    20:00 +11°C° 0 mm 1 mps 751 mmHg 61%
    21:00 +11°C° 0 mm 1 mps 750 mmHg 61%
    22:00 +9°C° 0 mm 2 mps 750 mmHg 61%
    23:00 +9°C° 0 mm 2 mps 750 mmHg 64%
    Show more